Regional Weather Roundup
Issued by NWS Newport/Morehead, NC

Current Version | Previous Version | Graphics & Text | Print | Product List | Glossary On
Versions: 1 2 3 4 5 6 7 8 9 10 11 12 13 14 15 16 17 18 19 20 21 22 23 24 25 26 27 28 29 30 31 32 33 34 35 36 37 38 39 40 41 42 43 44 45 46 47 48 49 50
000 ASUS42 KMHX 081125 RWRMHX WEATHER ROUNDUP FOR EASTERN NORTH CAROLINA NATIONAL WEATHER SERVICE NEWPORT/MOREHEAD CITY NC 600 AM EST MON FEB 08 2016 NOTE: "FAIR" INDICATES FEW OR NO CLOUDS BELOW 12,000 FEET WITH NO SIGNIFICANT WEATHER AND/OR OBSTRUCTIONS TO VISIBILITY NCZ015>017-031-032-045>047-102-103-081200- NORTH COAST CITY SKY/WX TMP DP RH WIND PRES REMARKS EDENTON CLEAR 37 26 63 NW8 29.77S ELIZABETH CITY MOCLDY 36 27 69 W14 29.75R KITTY HAWK CLOUDY 41 33 73 NW13G24 29.70R MANTEO CLOUDY 40 33 75 NW15G23 29.73R $$ NCZ045>047-081-094-103-104-081200- CENTRAL COAST CITY SKY/WX TMP DP RH WIND PRES REMARKS FRISCO CLOUDY 42 33 70 NW16G26 29.72R SWANQUARTER N/A 36 N/A N/A NW6G13 29.74S $$ NCZ095-097-098-100-101-081200- SOUTHERN COAST CITY SKY/WX TMP DP RH WIND PRES REMARKS BEAUFORT CLEAR 37 26 64 NW14 29.79R CEDAR ISLAND N/A 41 N/A N/A NW23 29.82R JACKSONVILLE CLEAR 35 25 66 W12 29.84R PINEY ISLAND NOT AVBL WILMINGTON CLEAR 35 28 75 W5 29.86R $$ NCZ011>013-027>030-043-044-078>080-089-090>093-098-081200- COASTAL PLAIN CITY SKY/WX TMP DP RH WIND PRES REMARKS AHOSKIE CLEAR 33 22 64 CALM 29.81R CLINTON CLEAR 34 28 80 CALM 29.86R ELIZABETHTOWN CLEAR 34 28 77 CALM 29.87R GOLDSBORO CLEAR 36 27 69 W9 29.83R GREENVILLE CLEAR 36 27 69 NW7 29.85R HAVELOCK CLEAR 36 24 62 W10 29.81R KENANSVILLE N/A 34 25 70 CALM 29.86R KINSTON NOT AVBL NEW BERN CLEAR 36 24 62 W8 29.82R RICHLANDS CLEAR 34 21 60 W3 29.85R ROCKY MOUNT CLEAR 33 24 69 CALM 29.83R WASHINGTON CLEAR 35 24 63 CALM 29.82R WHITEVILLE CLEAR 34 29 82 CALM 29.86S $$ AMZ130-135-150-152-154-156-158-170-250-252-270-ANZ085-086-088-633-658-670-081200- MARINE OBSERVATIONS STATION/POSITION TIME TEMP WIND PRES WAVE SWELL AIR SEA DIR/SP/G HT/PER HT/PER (UTC) (F) (DEG/KT/KT) (MB) (FT/S) (FT/S) CHESAPEAKE LIGHT 1100 41 330/ 25/ 28 1006.1 64 E VA BEACH 1050 47 53 350/ 27/ 35 1001.4 18/12 15/12 DUCK 1012 42 52 330/ 22/ 30 1003.9 2 E DUCK 1111 44 N/A 12/12 8/12 OREGON INLET 1012 41 45 320/ 19/ 30 1004.2 13E OREGON INLT 1100 48 N/A 18/15 13/15 HATTERAS CG 1012 43 46 320/ 25/ 29 1004.9 DIAMOND BUOY 1050 46 70 330/ 27/ 33 1004.8 13/12 10/12 CAPE LOOKOUT NOT AVBL BEAUFORT LAB 1012 39 45 320/ 9/ 15 1007.1 30 SE NEW RVR IN 1108 47 60 1008.2 30 SE NEW RVR IN 1025 60 N/A 9/ 6 5/13 27 SE WRIGHTSVLE 1108 46 60 360/ 19/ 25 1008.6 5 SE WRIGHTSVLE 1008 43 52 300/ 16/ 23 1010.6 225 S CAPE HAT 1050 59 69 300/ 27/ 35 N/A 27/13 21/13 41 SE CHARLESTON 1050 53 66 290/ 12/ 16 1012.3 5/11 3/11 $$

USA.gov is the U.S. government's official web portal to all federal, state and local government web resources and services.